Regional Weather Roundup
Issued by NWS Kansas City/Pleasant Hill, MO

Home | Current Version | Previous Version | Graphics & Text | Print | Product List | Glossary Off
Versions: 1 2 3 4 5 6 7 8 9 10 11 12 13 14 15 16 17 18 19 20 21 22 23 24 25 26 27 28 29 30 31 32 33 34 35 36 37 38 39 40 41 42 43 44 45 46 47 48 49 50

000
ASUS43 KEAX 281110
RWREAX

WEATHER ROUNDUP FOR EASTERN KANSAS AND NORTHWEST MISSOURI
NATIONAL WEATHER SERVICE KANSAS CITY/PLEASANT HILL MO
500 AM CST SAT FEB 28 2015

KSZ040-057-103>105-MOZ028-029-037-043-281200-
...KANSAS CITY METROPOLITAN AREA...

CITY           SKY/WX    TMP DP  RH WIND       PRES   REMARKS
K.C. INTL      CLOUDY    15   8  73 E8        30.51R WCI   4
K.C. DOWNTOWN  CLOUDY    18   8  65 E7        30.53S WCI   9
LEES SUMMIT    CLOUDY    16   8  71 E7        30.51S WCI   6
OLATHE - IXD   CLOUDY    16   8  71 E8        30.50R WCI   5
OLATHE - OJC   CLOUDY    17   8  67 E7        30.49R WCI   8
LAWRENCE       MOCLDY    15   6  67 E5        30.51S WCI   8

$$

MOZ001>008-011>017-020>025-030>033-038>040-044>046-053-054-281200-
...NORTHERN AND CENTRAL MISSOURI...

CITY           SKY/WX    TMP DP  RH WIND       PRES   REMARKS
ST. JOSEPH     CLOUDY    15   6  67 SE6       30.53S WCI   6
MOSBY          CLOUDY    18  10  73 E3        30.54S
WARRENSBURG    CLOUDY    18  10  73 E7        30.54S WCI   8
WHITEMAN AFB   CLOUDY    17   7  65 E8        30.53R WCI   6
CLINTON        CLOUDY    21   9  58 E6        30.53F WCI  14
SEDALIA        MOCLDY    18   7  62 E7        30.54F WCI   9
WARSAW         NOT AVBL
MARSHALL       CLOUDY    19   9  63 E8        30.57R WCI   9
CHILLICOTHE      N/A     14   6  70 E6        30.57S WCI   5
MOBERLY        CLOUDY    16   5  62 E7        30.58R WCI   6
KIRKSVILLE     CLOUDY    11   3  70 E8        30.57S WCI  -1

$$

MOZ041-047>049-056>058-063>065-088>090-097-281200-
...EASTERN AND SOUTHERN MISSOURI...

CITY           SKY/WX    TMP DP  RH WIND       PRES   REMARKS
ST. LOUIS INTL CLOUDY    16   4  59 E8        30.64S WCI   5
SPIRIT OF STL  CLOUDY    17   4  56 E7        30.63S WCI   8
COLUMBIA       CLOUDY    16  10  77 E9        30.56S WCI   4
JEFFERSON CITY CLOUDY    17  10  74 E8        30.60R WCI   7
MEXICO         FLURRIES  16  10  79 SE6       30.59  WCI   7
HANNIBAL       CLOUDY    12   1  62 E3        30.61S
ROLLA          CLOUDY    18   7  62 E9        30.52R WCI   7
LEBANON        CLOUDY    21   5  49 SE7       30.49F WCI  13
OSAGE BEACH    CLOUDY    21   7  53 E6        30.53F WCI  14
SPRINGFIELD    CLOUDY    20  10  65 SE10      30.47S WCI   9
BRANSON        FLURRIES  19  16  86 E6        30.48S WCI  11
NEVADA         CLOUDY    19   9  63 SE3       30.52R
JOPLIN         CLOUDY    20  13  74 SE7       30.48S WCI  11
WEST PLAINS    CLOUDY    19   8  62 E8        30.52S WCI   9

$$

IAZ060-094-KSZ022-034>040-054-083-096-NEZ052-066-093-281200-
...KANSAS...SOUTHEAST NEBRASKA AND IOWA...

CITY           SKY/WX    TMP DP  RH WIND       PRES   REMARKS
TOPEKA         MOCLDY    13   5  70 CALM      30.51R
MANHATTAN      CLOUDY    13  10  88 E3        30.47S
EMPORIA        CLOUDY    17   8  67 E7        30.46R WCI   8
CHANUTE        CLOUDY    19  11  70 E5        30.48R WCI  12
WICHITA        CLOUDY    16  11  80 SE7       30.41F WCI   6
OMAHA          CLEAR      6   1  80 SE6       30.50S WCI  -4
LINCOLN        CLEAR      7   1  76 S5        30.45F WCI  -2
FALLS CITY     PTCLDY    11   4  73 SE5       30.50S WCI   3
LAMONI         CLOUDY     6   0  76 E5        30.52S WCI  -3
DES MOINES     CLEAR      3  -4  72 SE7       30.56R WCI  -9

$$




USA.gov is the U.S. government's official web portal to all federal, state and local government web resources and services.